Showing default

GAOFEN 1-04, 43262

Orbit data source: Space-Track

GAOFEN 1-04, 43262 is a payload satellite owned by GGKGJ (CN) in SSO that was launched on Sat, 31 Mar 2018 UTC via a CHANG ZHENG 4C launch vehicle from the Taiyaun Space Center, China (TSC). Payload-class satellites include a variety of spacecraft equipped with specific instruments for various scientific and technological missions. These include communications satellites like Starlink; space stations such as the ISS; scientific satellites like the Hubble; Earth observation satellites from companies like Planet Labs, Umbra, and HawkEye 360; GPS; miniature CubeSats for education and research; and military/defense satellites.

Loading next visibility...
Identifier
43262, 2018-031D
Orbit
SSO
Country
Flag of CNCN / PRC
Related business
Manufacturer
DFH
Mission
Operational Civil Imaging
Bus & Motor
CAST-2000, AOCS
Mass
805 kg wet, ~700 kg dry
Launch date (UTC)
2018-03-31 (8 years ago)
Launch vehicle
CHANG ZHENG 4C
Launch site
Taiyaun Space Center, China (TSC)
Object type
Payload
Rocket body
Debris
Shape & HBR
Box + 2 Pan, 2.0 m
Radar Cross Section
4.991 m², Large (>1 m²)

Expand to show TLE details & history
Last TLE update: 2 days ago

TLE from 2 days ago
0 GAOFEN 1-04
1 43262U 18031D   25286.42997343  .00000043  00000-0  13696-4 0  9990
2 43262  98.0898 344.2117 0001071 133.1324 226.9975 14.76441283406278
Epoch: 2025-10-13T10:19Z
TLE epoch observation values (Epoch: 2025-10-13T10:19:09.704Z)
Latitude
-0.00003°
Longitude
167.1884°
Altitude
644.104 km
Speed
7.536 km/s
True Right ascension
22h 56m 50s
True Declination
0° 00' 00"
Sunlit
Object was in full shadow at epoch
Visualization orbit readout
Latitude
Unknown
Longitude
Unknown
Altitude
Unknown
Speed
Unknown
Apparent Right ascension
Unknown
Apparent Declination
Unknown
Sunlit
N/A
Visualization observer readout
Local Sidereal Time
18:02:25
Azimuth
Unknown
Elevation
Unknown
Doppler factor
Unknown
Orbital elements
Apogee altitude
638.385 km
Perigee altitude
636.883 km
Semi-major axis
7,015.771 km
Eccentricity
0.00011
Inclination
98.0898°
RAAN
344.2117°
Arg. of periapsis
133.1324°
True anomaly
226.98853°
Mean anomaly
226.9975°
Eccentric anomaly
226.99301°
Mean motion
3.69343 °/min
Orbital period
97.47 mins
BSTAR
0.000013696
Loading maneuver chart data...
Computing Atmospheric mass density...
Loading historical data...
Loading historical data...
Loading historical data...
Loading historical data...
Loading historical data...
Loading historical data...
Loading historical data...

Documentation

Showing up to 5 results
|